Location: Degersen
(52.2871°N, 9.5716°E)
Time: 06:34:06
(UTC+00:00)

Cosmos 1190 Rocket - Pass Details

Date: 20 January 2026
Orbit: 753 x 775 km, 74.1° (Epoch: 18 February)

Event Time Altitude Azimuth Distance (km) Brightness Sun altitude
Rises 06:36:58 0° 221° (SW) 3,206 7.1 -6.5°
Reaches altitude 10° 06:39:25 10° 227° (SW) 2,282 6.3 -6.1°
Maximum altitude 06:44:26 49° 302° (WNW) 968 4.2 -5.5°
Drops below altitude 10° 06:49:28 10° 18° (NNE) 2,290 6.4 -4.8°
Sets 06:51:55 0° 24° (NNE) 3,218 7.2 -4.4°
